MUHG

Details ICAO MUHG (HOG)
Name FRANK PAIS INTL
Region Cuba
Timezone America/Havana (UTC-4.0)
Plans Departing 49
Arriving 77
Stats Elevation 361 ft / 110 m (AMSL)
Location 20.785554° -76.315108°
Runways 1
Magnetic Variation 8.289° W
Sunrise 2018-05-25 10:26:20 UTC / 2018-05-25 06:26:20 Local
Sunset 2018-05-25 23:40:59 UTC / 2018-05-25 19:40:59 Local
Advertisement - Login to hide

Runways

ID Width Length Bearing (true) Bearing (mag) Surface Threshold Offset Overrun Length
05 148 ft / 45 m 10,642 ft / 3,244 m 46.12° 54.41° Asphalt 328 ft / 100 m 290 ft / 88 m
23 148 ft / 45 m 10,642 ft / 3,244 m 226.12° 234.41° Asphalt 0 ft / 0 m 0 ft / 0 m

Approach Navaids

Runway Type Ident Frequency Range Bearing (true) Bearing (mag) Slope Elevation
05 Localiser IHG 111.30 MHz 18 nm / 33 km 46.13° 54.42° - 361 ft / 110 m (AMSL)
05 Glidescope IHG 111.30 MHz 10 nm / 19 km 46.12° 54.41° 3.00° 361 ft / 110 m (AMSL)

Map

Weather


0- 5 10 15 20 25 30 35+ Temperature / ° C

Clouds and Precipitation
Forecast for 2018-05-25 06:00 UTC. Updated 3 hours ago

Ground ~20,000 ft ~40,000 ft Winds

METAR

MUHG 250751Z 10004KT 8000 FEW020 BKN200 23/23 Q1014

TAF

Not found

Frequencies

Tower 126.90 MHz HOLGUIN RDO
Approach 119.10 MHz HOLGUIN APP
Tower 118.00 MHz HOLGUIN TWR
Warning: Do not use this data for real-world aviation or navigation. No guarantee of current accuracy is given.